NIMBUS 2 DEB, 42442

Orbit data source: Space-Track

NIMBUS 2 DEB, 42442 is space debris in SSO originally from a launch on Sun, 15 May 1966 UTC launched from the Air Force Western Test Range (AFWTR). Debris objects in space refer to the collection of defunct objects orbiting the Earth. Examples of debris include non-operational satellites, rocket bodies, and fragments generated from explosions, collisions, or faulty payload assembly.

Loading next visibility...
Identifier
42442, 1966-040BV
Orbit
SSO
Country
Flag of USUS
Related business
Manufacturer
Unknown
Mission
Spacecraft
Bus & Motor
Unknown
Mass
Unknown
Launch date (UTC)
1966-05-15 (60 years ago)
Launch vehicle
Unknown
Launch site
Air Force Western Test Range (AFWTR)
Object type
Payload
Rocket body
Debris
Shape & HBR
Unknown shape, 0.1 m
Radar Cross Section
Small (<0.1 m²)

Expand to show TLE details & history
Last TLE update: 3 days ago

TLE from 3 days ago
0 NIMBUS 2 DEB
1 42442U 66040BV  26260.41102444  .00003820  00000-0  53353-2 0  9992
2 42442 100.3130 115.3412 0048293 301.1424  58.4981 13.57729245245500
Epoch: 2026-09-17T09:51Z
TLE epoch observation values (Epoch: 2026-09-17T09:51:52.511Z)
Latitude
-0.00002°
Longitude
-28.97624°
Altitude
1,028.124 km
Speed
7.347 km/s
True Right ascension
07h 41m 21s
True Declination
0° 00' 00"
Sunlit
Object was in daylight at epoch
Visualization orbit readout
Latitude
Unknown
Longitude
Unknown
Altitude
Unknown
Speed
Unknown
Apparent Right ascension
Unknown
Apparent Declination
Unknown
Sunlit
N/A
Visualization observer readout
Local Sidereal Time
19:20:21
Azimuth
Unknown
Elevation
Unknown
Doppler factor
Unknown
Orbital elements
Apogee altitude
1,077.11 km
Perigee altitude
1,005.449 km
Semi-major axis
7,419.417 km
Eccentricity
0.00483
Inclination
100.313°
RAAN
115.3412°
Arg. of periapsis
301.1424°
True anomaly
58.97143°
Mean anomaly
58.4981°
Eccentric anomaly
58.73461°
Mean motion
3.39616 °/min
Orbital period
106 mins
BSTAR
0.0053353
Loading maneuver chart data...
Computing Atmospheric mass density...
Loading historical data...
Loading historical data...
Loading historical data...
Loading historical data...
Loading historical data...
Loading historical data...
Loading historical data...

Documentation

Showing up to 5 results
|